WMT7LD EBCI-LROP

Flight info

Callsign WMT7LD
Flight time N/A
Altitude 35000
Route SOPOK Y863 ROPUV L607 ULNOK DCT VIBOM DCT NOMBO DCT RIDAR DCT GOMIG DCT GOTAR DCT INVED DCT LAMIT DCT TOSVI
Aircraft A321/M-SDE3FGHIRWY/LB1

Departure

Time 2026-04-27 13:07
Airport Brussels South Charleroi Airport (EBCI)

Arrival

Time N/A
Airport Bucharest Henri Coandă International Airport (LROP)
Time Latitude Longitude Altitude Speed Heading
2026-04-27 12:39 50.46866 4.47103 621 ft 0 kts 336°
2026-04-27 12:40 50.46865 4.47103 621 ft 0 kts 336°
2026-04-27 12:54 50.46852 4.47120 626 ft 3 kts 280°
2026-04-27 12:54 50.46853 4.47143 620 ft 0 kts 245°
2026-04-27 12:58 50.46845 4.47125 625 ft 5 kts 229°
2026-04-27 12:58 50.46793 4.47100 610 ft 11 kts 192°
2026-04-27 12:58 50.46733 4.46989 620 ft 17 kts 248°
2026-04-27 12:59 50.46688 4.46830 616 ft 12 kts 244°
2026-04-27 12:59 50.46627 4.46802 625 ft 9 kts 176°
2026-04-27 12:59 50.46579 4.46712 622 ft 14 kts 245°
2026-04-27 12:59 50.46532 4.46541 626 ft 20 kts 245°
2026-04-27 13:00 50.46464 4.46314 626 ft 26 kts 245°
2026-04-27 13:00 50.46381 4.46040 628 ft 31 kts 245°
2026-04-27 13:00 50.46288 4.45708 629 ft 35 kts 246°
2026-04-27 13:00 50.46189 4.45358 631 ft 35 kts 246°
2026-04-27 13:01 50.46088 4.45019 632 ft 34 kts 245°
2026-04-27 13:01 50.45994 4.44696 629 ft 32 kts 246°
2026-04-27 13:01 50.45889 4.44395 630 ft 31 kts 232°
2026-04-27 13:01 50.45763 4.44134 637 ft 27 kts 232°
2026-04-27 13:02 50.45687 4.43980 633 ft 11 kts 229°
2026-04-27 13:02 50.45634 4.44002 634 ft 10 kts 128°
2026-04-27 13:02 50.45641 4.44094 639 ft 0 kts 66°
2026-04-27 13:05 50.45641 4.44095 633 ft 0 kts 66°
2026-04-27 13:06 50.45656 4.44147 635 ft 12 kts 63°
2026-04-27 13:06 50.45738 4.44431 636 ft 59 kts 65°
2026-04-27 13:06 50.46000 4.45321 627 ft 121 kts 65°
2026-04-27 13:06 50.46435 4.46776 653 ft 167 kts 62°
2026-04-27 13:07 50.46924 4.48420 1300 ft 165 kts 55°
2026-04-27 13:07 50.47639 4.49789 2039 ft 163 kts 48°
2026-04-27 13:07 50.48405 4.51169 2470 ft 176 kts 47°
2026-04-27 13:07 50.49274 4.52712 2738 ft 199 kts 47°
2026-04-27 13:08 50.50225 4.54410 2919 ft 221 kts 48°
2026-04-27 13:08 50.51295 4.56332 3185 ft 244 kts 48°
2026-04-27 13:08 50.52442 4.58402 3741 ft 255 kts 49°
2026-04-27 13:08 50.53577 4.60555 4363 ft 261 kts 51°
2026-04-27 13:09 50.54710 4.62825 5066 ft 266 kts 52°
2026-04-27 13:09 50.55853 4.65163 5718 ft 271 kts 52°
2026-04-27 13:09 50.56995 4.67509 6368 ft 276 kts 52°
2026-04-27 13:09 50.58176 4.69927 7008 ft 280 kts 52°
2026-04-27 13:10 50.59364 4.72352 7647 ft 283 kts 52°
2026-04-27 13:10 50.60577 4.74825 8296 ft 287 kts 51°
2026-04-27 13:10 50.61805 4.77329 8963 ft 290 kts 51°
2026-04-27 13:10 50.63030 4.79828 9644 ft 292 kts 51°
2026-04-27 13:11 50.64284 4.82384 10262 ft 296 kts 51°
2026-04-27 13:11 50.65364 4.85183 10807 ft 302 kts 67°
2026-04-27 13:11 50.65920 4.88410 11222 ft 314 kts 84°
2026-04-27 13:11 50.65779 4.91884 11351 ft 332 kts 106°
2026-04-27 13:12 50.64866 4.95341 11485 ft 350 kts 117°
2026-04-27 13:12 50.63770 4.98883 11624 ft 368 kts 117°
2026-04-27 13:12 50.62626 5.02516 11975 ft 378 kts 117°
2026-04-27 13:12 50.61439 5.06260 12503 ft 383 kts 117°
2026-04-27 13:13 50.60239 5.10029 13074 ft 386 kts 118°
2026-04-27 13:13 50.59044 5.13786 13624 ft 391 kts 118°
2026-04-27 13:13 50.57822 5.17642 14158 ft 395 kts 118°
2026-04-27 13:13 50.56587 5.21546 14647 ft 400 kts 118°
2026-04-27 13:14 50.55351 5.25451 15140 ft 404 kts 117°
2026-04-27 13:14 50.54088 5.29432 15640 ft 407 kts 117°
2026-04-27 13:14 50.52829 5.33390 16125 ft 412 kts 117°
2026-04-27 13:14 50.51536 5.37453 16635 ft 415 kts 117°
2026-04-27 13:15 50.50240 5.41529 17137 ft 419 kts 117°
2026-04-27 13:15 50.48949 5.45591 17635 ft 423 kts 117°
2026-04-27 13:15 50.47625 5.49746 18125 ft 426 kts 117°
2026-04-27 13:15 50.46285 5.53933 18601 ft 430 kts 117°
2026-04-27 13:16 50.44945 5.58105 19012 ft 434 kts 117°
2026-04-27 13:16 50.43578 5.62349 19455 ft 436 kts 117°
2026-04-27 13:16 50.42202 5.66622 19876 ft 439 kts 117°
2026-04-27 13:16 50.40834 5.70864 20288 ft 442 kts 117°
2026-04-27 13:17 50.39443 5.75174 20703 ft 444 kts 117°
2026-04-27 13:17 50.38038 5.79517 21115 ft 447 kts 118°
2026-04-27 13:17 50.36644 5.83825 21500 ft 449 kts 118°
2026-04-27 13:17 50.35227 5.88203 21897 ft 452 kts 118°
2026-04-27 13:18 50.33792 5.92615 22285 ft 454 kts 118°
2026-04-27 13:18 50.32349 5.97037 22667 ft 457 kts 118°
2026-04-27 13:18 50.30908 6.01438 23040 ft 459 kts 118°
2026-04-27 13:18 50.29437 6.05918 23417 ft 462 kts 118°
2026-04-27 13:19 50.27976 6.10364 23778 ft 464 kts 118°
2026-04-27 13:19 50.26493 6.14882 24077 ft 467 kts 118°
2026-04-27 13:19 50.25018 6.19374 24368 ft 469 kts 118°
2026-04-27 13:19 50.23519 6.23938 24690 ft 471 kts 118°
2026-04-27 13:20 50.22013 6.28514 24992 ft 473 kts 119°
2026-04-27 13:20 50.20518 6.33041 25279 ft 476 kts 119°
2026-04-27 13:20 50.18989 6.37657 25569 ft 478 kts 119°
2026-04-27 13:20 50.17453 6.42287 25850 ft 481 kts 119°
2026-04-27 13:21 50.15929 6.46875 26098 ft 484 kts 119°
2026-04-27 13:21 50.14364 6.51573 26369 ft 486 kts 119°
2026-04-27 13:21 50.12813 6.56212 26625 ft 489 kts 119°
2026-04-27 13:21 50.11235 6.60929 26893 ft 491 kts 119°
2026-04-27 13:22 50.09662 6.65624 27177 ft 493 kts 120°
2026-04-27 13:22 50.08067 6.70376 27458 ft 495 kts 120°
2026-04-27 13:22 50.06465 6.75147 27728 ft 498 kts 120°
2026-04-27 13:22 50.04870 6.79888 27993 ft 500 kts 120°
2026-04-27 13:23 50.03250 6.84693 28331 ft 500 kts 120°
2026-04-27 13:23 50.01626 6.89495 28716 ft 500 kts 120°
2026-04-27 13:23 50.00023 6.94225 29084 ft 500 kts 120°
2026-04-27 13:23 49.98395 6.99014 29435 ft 500 kts 120°
2026-04-27 13:24 49.96763 7.03812 29814 ft 499 kts 120°
2026-04-27 13:24 49.95151 7.08544 30193 ft 499 kts 120°
2026-04-27 13:24 49.93522 7.13316 30528 ft 498 kts 120°
2026-04-27 13:24 49.91915 7.18018 30837 ft 498 kts 120°
2026-04-27 13:25 49.90285 7.22773 31155 ft 497 kts 120°
2026-04-27 13:25 49.88654 7.27516 31484 ft 496 kts 120°
2026-04-27 13:25 49.87051 7.32181 31813 ft 495 kts 120°
2026-04-27 13:25 49.85431 7.36888 32140 ft 494 kts 120°
2026-04-27 13:26 49.83808 7.41592 32463 ft 493 kts 120°
2026-04-27 13:26 49.82202 7.46237 32776 ft 492 kts 120°
2026-04-27 13:26 49.80584 7.50918 33074 ft 491 kts 120°
2026-04-27 13:26 49.78992 7.55524 33364 ft 491 kts 120°
2026-04-27 13:27 49.77374 7.60191 33652 ft 490 kts 120°
2026-04-27 13:27 49.75759 7.64843 33944 ft 489 kts 121°
2026-04-27 13:27 49.74165 7.69424 34226 ft 488 kts 121°
2026-04-27 13:27 49.72541 7.74067 34483 ft 488 kts 121°
2026-04-27 13:28 49.70942 7.78622 34717 ft 487 kts 121°
2026-04-27 13:28 49.69321 7.83231 34915 ft 487 kts 121°
2026-04-27 13:28 49.67696 7.87846 35131 ft 487 kts 121°
2026-04-27 13:28 49.66091 7.92392 35197 ft 488 kts 121°
2026-04-27 13:29 49.62828 8.01631 35204 ft 488 kts 121°
2026-04-27 13:29 49.59583 8.10804 35213 ft 488 kts 121°
2026-04-27 13:30 49.56336 8.19943 35204 ft 488 kts 121°
2026-04-27 13:30 49.53077 8.29072 35197 ft 488 kts 121°
2026-04-27 13:31 49.49791 8.38247 35199 ft 488 kts 121°
2026-04-27 13:31 49.46520 8.47366 35200 ft 489 kts 121°
2026-04-27 13:32 49.43241 8.56477 35203 ft 489 kts 121°
2026-04-27 13:32 49.39917 8.65642 35192 ft 489 kts 121°
2026-04-27 13:33 49.36614 8.74716 35198 ft 489 kts 121°
2026-04-27 13:33 49.33309 8.83796 35200 ft 489 kts 121°
2026-04-27 13:34 49.29998 8.92860 35201 ft 489 kts 121°
2026-04-27 13:34 49.26670 9.01931 35202 ft 489 kts 121°
2026-04-27 13:35 49.23330 9.11019 35199 ft 489 kts 121°
2026-04-27 13:35 49.19996 9.20049 35198 ft 489 kts 121°
2026-04-27 13:36 49.16657 9.29043 35196 ft 488 kts 121°
2026-04-27 13:36 49.13286 9.38083 35188 ft 488 kts 121°
2026-04-27 13:37 49.09932 9.47071 35194 ft 488 kts 121°
2026-04-27 13:37 49.06580 9.56047 35200 ft 488 kts 121°
2026-04-27 13:38 49.03209 9.65019 35209 ft 488 kts 121°
2026-04-27 13:38 48.99833 9.73960 35210 ft 489 kts 121°
2026-04-27 13:39 48.96453 9.82891 35209 ft 489 kts 121°
2026-04-27 13:39 48.93048 9.91855 35212 ft 489 kts 121°
2026-04-27 13:40 48.89650 10.00777 35208 ft 489 kts 121°
2026-04-27 13:40 48.86232 10.09725 35215 ft 489 kts 121°
2026-04-27 13:41 48.82818 10.18621 35215 ft 489 kts 121°
2026-04-27 13:41 48.79400 10.27505 35226 ft 489 kts 121°
2026-04-27 13:42 48.75958 10.36422 35230 ft 489 kts 121°
2026-04-27 13:42 48.72527 10.45266 35232 ft 489 kts 121°
2026-04-27 13:43 48.69081 10.54117 35235 ft 489 kts 121°
2026-04-27 13:43 48.65633 10.62948 35228 ft 489 kts 121°
2026-04-27 13:44 48.62170 10.71813 35227 ft 489 kts 121°
2026-04-27 13:44 48.58853 10.80713 35214 ft 488 kts 114°
2026-04-27 13:45 48.56549 10.90373 35211 ft 488 kts 108°
2026-04-27 13:45 48.54345 11.00020 35204 ft 488 kts 108°
2026-04-27 13:46 48.52127 11.09633 35208 ft 487 kts 108°
2026-04-27 13:46 48.49882 11.19331 35208 ft 488 kts 109°
2026-04-27 13:47 48.47648 11.28948 35203 ft 487 kts 109°
2026-04-27 13:47 48.45408 11.38557 35206 ft 487 kts 108°
2026-04-27 13:48 48.43169 11.48126 35207 ft 486 kts 108°
2026-04-27 13:48 48.40907 11.57734 35208 ft 486 kts 108°
2026-04-27 13:49 48.38660 11.67263 35212 ft 486 kts 109°
2026-04-27 13:49 48.36384 11.76874 35220 ft 486 kts 108°
2026-04-27 13:50 48.34109 11.86404 35215 ft 486 kts 109°
2026-04-27 13:50 48.31826 11.95908 35210 ft 486 kts 109°
2026-04-27 13:51 48.29526 12.05488 35208 ft 486 kts 109°
2026-04-27 13:51 48.27240 12.14980 35215 ft 485 kts 108°
2026-04-27 13:52 48.24943 12.24465 35202 ft 485 kts 108°
2026-04-27 13:52 48.22632 12.33955 35203 ft 485 kts 109°
2026-04-27 13:53 48.19140 12.48230 35204 ft 485 kts 109°
2026-04-27 13:54 48.16818 12.57681 35206 ft 485 kts 109°
2026-04-27 13:54 48.14476 12.67132 35205 ft 485 kts 109°
2026-04-27 13:55 48.11947 12.76462 35205 ft 486 kts 112°
2026-04-27 13:55 48.09592 12.84138 35202 ft 486 kts 114°
2026-04-27 13:56 48.06227 12.94783 35207 ft 486 kts 113°
2026-04-27 13:56 48.03412 13.03924 35203 ft 486 kts 113°
2026-04-27 13:57 48.00631 13.13082 35202 ft 486 kts 113°
2026-04-27 13:57 47.97831 13.22278 35198 ft 486 kts 113°
2026-04-27 13:58 47.95024 13.31405 35203 ft 486 kts 113°
2026-04-27 13:58 47.92657 13.39026 35194 ft 486 kts 113°
2026-04-27 13:59 47.89805 13.48177 35191 ft 486 kts 113°
2026-04-27 13:59 47.86969 13.57298 35190 ft 486 kts 113°
2026-04-27 14:00 47.83673 13.67886 35191 ft 485 kts 113°
2026-04-27 14:00 47.81290 13.75464 35189 ft 485 kts 113°
2026-04-27 14:01 47.78411 13.84590 35190 ft 485 kts 113°
2026-04-27 14:01 47.75557 13.93611 35185 ft 484 kts 113°
2026-04-27 14:02 47.72690 14.02652 35192 ft 484 kts 113°
2026-04-27 14:02 47.69821 14.11685 35184 ft 484 kts 113°
2026-04-27 14:03 47.66945 14.20688 35180 ft 485 kts 113°
2026-04-27 14:03 47.64044 14.29747 35175 ft 484 kts 114°
2026-04-27 14:04 47.61151 14.38741 35190 ft 485 kts 114°
2026-04-27 14:04 47.58248 14.47730 35178 ft 484 kts 114°
2026-04-27 14:05 47.55349 14.56684 35167 ft 484 kts 114°
2026-04-27 14:05 47.52428 14.65691 35155 ft 484 kts 114°
2026-04-27 14:06 47.49504 14.74649 35154 ft 485 kts 114°
2026-04-27 14:06 47.46577 14.83580 35146 ft 484 kts 114°
2026-04-27 14:07 47.43639 14.92501 35155 ft 483 kts 114°
2026-04-27 14:07 47.40708 15.01398 35161 ft 482 kts 114°
2026-04-27 14:08 47.37786 15.10268 35155 ft 482 kts 114°
2026-04-27 14:08 47.34826 15.19176 35163 ft 482 kts 114°
2026-04-27 14:09 47.31878 15.28022 35172 ft 482 kts 114°
2026-04-27 14:09 47.28929 15.36858 35169 ft 482 kts 114°
2026-04-27 14:10 47.25970 15.45684 35174 ft 482 kts 114°
2026-04-27 14:10 47.22986 15.54547 35180 ft 482 kts 114°
2026-04-27 14:11 47.20007 15.63358 35188 ft 483 kts 115°
2026-04-27 14:11 47.17020 15.72172 35187 ft 483 kts 115°
2026-04-27 14:12 47.14028 15.80994 35186 ft 483 kts 115°
2026-04-27 14:12 47.11007 15.89850 35179 ft 483 kts 115°
2026-04-27 14:13 47.08003 15.98636 35189 ft 483 kts 115°
2026-04-27 14:13 47.04991 16.07409 35192 ft 483 kts 115°
2026-04-27 14:14 47.01954 16.16220 35198 ft 483 kts 115°
2026-04-27 14:14 46.99306 16.25166 35195 ft 479 kts 103°
2026-04-27 14:15 46.97606 16.34550 35196 ft 478 kts 102°
2026-04-27 14:15 46.95911 16.43941 35196 ft 478 kts 102°
2026-04-27 14:16 46.94187 16.53384 35198 ft 479 kts 102°
2026-04-27 14:16 46.92455 16.62759 35210 ft 479 kts 102°
2026-04-27 14:17 46.90719 16.72144 35200 ft 479 kts 102°
2026-04-27 14:17 46.88981 16.81531 35202 ft 479 kts 102°
2026-04-27 14:18 46.87234 16.90937 35208 ft 480 kts 102°
2026-04-27 14:18 46.85470 17.00342 35217 ft 480 kts 102°
2026-04-27 14:19 46.83712 17.09671 35212 ft 480 kts 102°
2026-04-27 14:19 46.81932 17.19057 35214 ft 480 kts 102°
2026-04-27 14:20 46.80143 17.28443 35215 ft 480 kts 102°
2026-04-27 14:20 46.78362 17.37825 35225 ft 480 kts 102°
2026-04-27 14:21 46.76584 17.47139 35216 ft 480 kts 102°
2026-04-27 14:21 46.74773 17.56509 35213 ft 480 kts 102°
2026-04-27 14:22 46.72947 17.65877 35212 ft 480 kts 102°
2026-04-27 14:22 46.71121 17.75241 35223 ft 480 kts 102°
2026-04-27 14:23 46.69307 17.84536 35222 ft 480 kts 102°
2026-04-27 14:23 46.67477 17.93881 35220 ft 480 kts 102°
2026-04-27 14:24 46.65629 18.03216 35219 ft 480 kts 103°
2026-04-27 14:24 46.63766 18.12545 35236 ft 480 kts 103°
2026-04-27 14:25 46.61918 18.21797 35218 ft 480 kts 103°
2026-04-27 14:25 46.60051 18.31107 35216 ft 480 kts 103°
2026-04-27 14:26 46.58180 18.40417 35215 ft 480 kts 103°
2026-04-27 14:26 46.56299 18.49715 35228 ft 480 kts 103°
2026-04-27 14:27 46.54406 18.59009 35221 ft 479 kts 103°
2026-04-27 14:27 46.52523 18.68227 35218 ft 479 kts 103°
2026-04-27 14:28 46.50619 18.77497 35216 ft 479 kts 103°
2026-04-27 14:28 46.48708 18.86758 35236 ft 479 kts 104°
2026-04-27 14:29 46.46791 18.96020 35226 ft 479 kts 104°
2026-04-27 14:29 46.44877 19.05202 35219 ft 479 kts 104°
2026-04-27 14:30 46.42947 19.14440 35213 ft 479 kts 104°
2026-04-27 14:30 46.41008 19.23673 35226 ft 479 kts 104°
2026-04-27 14:31 46.39061 19.32902 35222 ft 479 kts 104°
2026-04-27 14:31 46.37101 19.42128 35217 ft 479 kts 104°
2026-04-27 14:32 46.35145 19.51283 35216 ft 479 kts 104°
2026-04-27 14:32 46.33179 19.60504 35232 ft 480 kts 105°
2026-04-27 14:33 46.31201 19.69727 35230 ft 480 kts 105°
2026-04-27 14:33 46.29214 19.78942 35222 ft 480 kts 105°
2026-04-27 14:34 46.27216 19.88152 35220 ft 480 kts 105°
2026-04-27 14:34 46.25223 19.97291 35219 ft 480 kts 105°
2026-04-27 14:35 46.23215 20.06490 35218 ft 480 kts 105°
2026-04-27 14:35 46.21205 20.15681 35218 ft 480 kts 105°
2026-04-27 14:36 46.19176 20.24865 35216 ft 480 kts 105°
2026-04-27 14:36 46.17136 20.34045 35215 ft 480 kts 106°
2026-04-27 14:37 46.14821 20.43016 35216 ft 482 kts 115°
2026-04-27 14:37 46.11894 20.51710 35218 ft 482 kts 114°
2026-04-27 14:38 46.08966 20.60407 35214 ft 482 kts 114°
2026-04-27 14:38 46.06033 20.69099 35221 ft 483 kts 115°
2026-04-27 14:39 46.03100 20.77720 35216 ft 483 kts 115°
2026-04-27 14:39 46.00138 20.86393 35215 ft 483 kts 115°
2026-04-27 14:40 45.97177 20.95062 35209 ft 483 kts 115°
2026-04-27 14:40 45.94219 21.03723 35217 ft 483 kts 115°
2026-04-27 14:41 45.91246 21.12377 35212 ft 483 kts 115°
2026-04-27 14:41 45.88282 21.20971 35187 ft 483 kts 116°
2026-04-27 14:42 45.85290 21.29611 35186 ft 484 kts 116°
2026-04-27 14:42 45.82286 21.38245 35191 ft 484 kts 116°
2026-04-27 14:43 45.79287 21.46873 35186 ft 484 kts 116°
2026-04-27 14:43 45.76298 21.55434 35188 ft 484 kts 116°
2026-04-27 14:44 45.73276 21.64043 35199 ft 484 kts 116°
2026-04-27 14:44 45.70250 21.72646 35203 ft 484 kts 116°
2026-04-27 14:45 45.67222 21.81244 35190 ft 484 kts 116°
2026-04-27 14:45 45.64180 21.89835 35198 ft 484 kts 116°
2026-04-27 14:46 45.61157 21.98358 35198 ft 484 kts 117°